Location: Pilipovskiye Korichintsy
(49.1833°N, 27.4667°E)
Time: 22:26:34
(UTC+00:00)

CENTAUR R/B - Pass Details

Date: 14 July 2020
Orbit: 756 x 1432 km, 63.5° (Epoch: 08 August)

Event Time Altitude Azimuth Distance (km) Brightness Sun altitude
Rises 01:22:22 0° 174° (S) 3,386 4.9 -8.0°
Reaches altitude 10° 01:25:08 10° 160° (SSE) 2,539 4.4 -7.7°
Maximum altitude 01:29:43 24° 109° (ESE) 1,894 4.4 -7.1°
Drops below altitude 10° 01:34:52 10° 59° (ENE) 2,897 6.6 -6.6°
Sets 01:38:15 0° 47° (NE) 3,985 8.6 -6.2°
